Location: Estes Par
(40.3770°N, 105.5210°W)
Time: 18:56:20
(UTC-06:00)

Vanguard 1 Rocket - Visible Passes

Search period start: 20 June 2018 00:00
Search period end: 30 June 2018 00:00
Orbit: 653 x 4224 km, 34.3° (Epoch: 20 June)

Date Brightness Start Highest point End Pass type
(mag) Time Alt. Az. Time Alt. Az. Time Alt. Az.
20 Jun 10.3 00:38:48 10° WSW 00:44:49 21° SW 00:44:49 21° SW visible
20 Jun 8.5 21:02:14 10° W 21:08:05 47° S 21:18:38 10° ESE visible
20 Jun 9.8 23:27:03 10° WSW 23:34:33 28° SSW 23:36:59 26° S visible
21 Jun 9.2 22:16:07 10° W 22:22:41 34° SSW 22:29:14 20° SSE visible
22 Jun 10.5 00:44:03 10° WSW 00:46:27 13° SW 00:46:27 13° SW visible
22 Jun 8.7 21:05:39 10° W 21:11:15 39° SSW 21:20:57 10° SE visible
22 Jun 10.0 23:31:15 10° WSW 23:37:44 21° SSW 23:38:47 20° SSW visible
23 Jun 9.5 22:19:53 10° WSW 22:25:53 26° SSW 22:31:10 18° SSE visible
24 Jun 8.9 21:09:11 10° WSW 21:14:28 31° SSW 21:23:03 10° SE visible
24 Jun 10.3 23:36:23 10° SW 23:40:52 14° SSW 23:40:52 14° SSW visible
25 Jun 9.8 22:24:03 10° WSW 22:29:07 19° SSW 22:33:22 15° S visible
26 Jun 9.2 21:12:56 10° WSW 21:17:41 24° SSW 21:24:50 10° SSE visible
27 Jun 10.1 22:29:17 10° SW 22:32:22 12° SSW 22:35:46 10° S visible
28 Jun 9.5 21:17:04 10° WSW 21:20:56 17° SSW 21:26:07 10° SSE visible
